Weather History for Trinidad, CO

Change the Weather History Date:

Friday, September 7, 2012

  Actual Average Record
Temperature  
Mean Temperature 62 °F 68 °F  
Max Temperature 73 °F 83 °F 95 °F (1971)
Min Temperature 50 °F 52 °F 41 °F (1970)
Degree Days  
Heating Degree Days 3 1  
Month to date heating degree days 3 7  
Since 1 July heating degree days 3 17  
Cooling Degree Days 0 4  
Month to date cooling degree days 57 31  
Year to date cooling degree days 1142 673  
Growing Degree Days 14 (Base 50)    
Moisture  
Dew Point 40 °F    
Average Humidity 42    
Maximum Humidity 66    
Minimum Humidity 17    
Precipitation  
Precipitation 0.00 in 0.05 in 0.65 in (1990)
Month to date precipitation 0.01 0.36  
Year to date precipitation 10.82  
Snow  
Snow 0.00 in - - ()
Month to date snowfall 0.0  
Snow Depth 0.00 in    
Sea Level Pressure  
Sea Level Pressure 30.05 in    
Wind  
Wind Speed 9 mph (NNW)    
Max Wind Speed 23 mph    
Max Gust Speed 31 mph    
Visibility 10 miles    
Events      
T = Trace of Precipitation, MM = Missing Value Source: NWS Daily Summary

Daily Weather History Graph

Daily Weather History Graph

Search for Another Location

Airport:

Trip Planner

Search our weather history database for the weather conditions in past years. The results will help you decide how hot, cold, wet, or windy it might be!

Date:

Astronomy

Sep. 07, 2012 Rise Set
Actual Time 6:33 AM MDT 7:16 PM MDT
Civil Twilight 6:06 AM MDT 7:42 PM MDT
Nautical Twilight 5:35 AM MDT 8:13 PM MDT
Astronomical Twilight 5:03 AM MDT 8:45 PM MDT
Moon 11:23 PM MDT (9/7) 1:17 PM MDT (9/7)
Length of Visible Light 13h 35m
Length of Day
12h 43m
Waning Gibbous, 58% of the Moon is Illuminated
Sep 7
Waning Gibbous
Sep 8
Last Quarter
Sep 15
New
Sep 22
First Quarter
Sep 29
Full

Hourly Weather History & Observations

Time (MDT) Temp. Dew Point Humidity Pressure Visibility Wind Dir Wind Speed Gust Speed Precip Events Conditions
12:54 AM 71.1 °F 50.0 °F 47% 29.75 in 10.0 mi WSW 17.3 mph - N/A   Clear
1:54 AM 69.1 °F 46.9 °F 45% 29.74 in 10.0 mi WSW 17.3 mph - N/A   Clear
2:54 AM 70.0 °F 46.9 °F 44% 29.73 in 10.0 mi West 12.7 mph - N/A   Clear
3:54 AM 69.1 °F 45.0 °F 42% 29.75 in 10.0 mi West 15.0 mph - N/A   Clear
4:54 AM 73.0 °F 26.1 °F 17% 29.84 in 10.0 mi NNW 12.7 mph 28.8 mph N/A   Clear
5:54 AM 63.0 °F 33.1 °F 33% 29.96 in 10.0 mi NW 11.5 mph 27.6 mph N/A   Clear
6:54 AM 59.0 °F 37.0 °F 44% 30.05 in 10.0 mi North 10.4 mph - N/A   Clear
7:54 AM 61.0 °F 37.9 °F 42% 30.10 in 10.0 mi North 10.4 mph - N/A   Clear
8:54 AM 63.0 °F 37.0 °F 38% 30.11 in 10.0 mi North 12.7 mph - N/A   Clear
9:54 AM 64.9 °F 36.0 °F 34% 30.11 in 10.0 mi North 11.5 mph - N/A   Clear
10:54 AM 69.1 °F 36.0 °F 30% 30.10 in 10.0 mi NNE 10.4 mph 20.7 mph N/A   Clear
11:54 AM 69.1 °F 36.0 °F 30% 30.08 in 10.0 mi North 11.5 mph 21.9 mph N/A   Clear
12:54 PM 72.0 °F 37.9 °F 29% 30.06 in 10.0 mi North 12.7 mph 21.9 mph N/A   Clear
1:54 PM 70.0 °F 37.9 °F 31% 30.06 in 10.0 mi NNE 10.4 mph 17.3 mph N/A   Clear
2:54 PM 71.1 °F 39.9 °F 32% 30.04 in 10.0 mi East 12.7 mph 23.0 mph N/A   Clear
3:54 PM 64.9 °F 41.0 °F 42% 30.09 in 10.0 mi ESE 11.5 mph - N/A   Partly Cloudy
4:54 PM 64.9 °F 41.0 °F 42% 30.10 in 10.0 mi ESE 8.1 mph - N/A   Overcast
5:54 PM 64.0 °F 42.1 °F 45% 30.15 in 10.0 mi SE 6.9 mph - N/A   Partly Cloudy
6:54 PM 63.0 °F 42.1 °F 46% 30.17 in 10.0 mi SE 8.1 mph - N/A   Mostly Cloudy
7:54 PM 59.0 °F 43.0 °F 55% 30.20 in 10.0 mi South 4.6 mph - N/A   Scattered Clouds
8:54 PM 57.9 °F 42.1 °F 56% 30.22 in 10.0 mi SSW 4.6 mph - N/A   Mostly Cloudy
9:54 PM 55.9 °F 42.1 °F 60% 30.23 in 10.0 mi WNW 3.5 mph - N/A   Clear
10:54 PM 54.0 °F 42.1 °F 64% 30.25 in 10.0 mi NW 4.6 mph - N/A   Clear
11:54 PM 53.1 °F 39.9 °F 61% 30.25 in 10.0 mi WNW 3.5 mph - N/A   Clear